| time (UTC) | temp F | wind direction | speed MPH | gust MPH | rain 1hr in | rain 24hr in | rain mn in | humidity % | barometer mb |
| 20260831132138 | 81 | 90 | 2.0 | 3.0 | 0.00 | 0.00 | 0.00 | 89 | 1013.9 |
| 20260831131633 | 80 | 90 | 2.0 | 5.0 | 0.00 | 0.00 | 0.00 | 89 | 1013.9 |
| 20260831131128 | 79 | 90 | 1.0 | 5.0 | 0.00 | 0.00 | 0.00 | 89 | 1013.5 |
| 20260831130629 | 79 | 71 | 0.0 | 0.0 | 0.00 | 0.00 | 0.00 | 90 | 1013.5 |
| 20260831130130 | 78 | 70 | 0.0 | 0.0 | 0.00 | 0.00 | 0.00 | 91 | 1013.5 |
| 20260831125627 | 77 | 70 | 0.0 | 0.0 | 0.00 | 0.00 | 0.00 | 91 | 1013.4 |
| 20260831125125 | 76 | 70 | 0.0 | 0.0 | 0.00 | 0.00 | 0.00 | 92 | 1013.4 |
| 20260831124626 | 76 | 70 | 0.0 | 2.0 | 0.00 | 0.00 | 0.00 | 92 | 1013.4 |
| 20260831124126 | 76 | 69 | 0.0 | 2.0 | 0.00 | 0.00 | 0.00 | 92 | 1013.2 |
| 20260831123851 | 76 | 69 | 0.0 | 2.0 | 0.00 | 0.00 | 0.00 | 92 | 1013.2 |
| 20260831123630 | 76 | 69 | 0.0 | 2.0 | 0.00 | 0.00 | 0.00 | 92 | 1013.2 |
| 20260831123125 | 76 | 69 | 0.0 | 2.0 | 0.00 | 0.00 | 0.00 | 93 | 1013.2 |
| 20260831122627 | 75 | 69 | 0.0 | 2.0 | 0.00 | 0.00 | 0.00 | 92 | 1013.0 |
| 20260831122115 | 75 | 69 | 0.0 | 2.0 | 0.00 | 0.00 | 0.00 | 92 | 1013.0 |
| 20260831121601 | 75 | 69 | 1.0 | 4.0 | 0.00 | 0.00 | 0.00 | 92 | 1013.0 |
| 20260831121046 | 75 | 69 | 1.0 | 4.0 | 0.00 | 0.00 | 0.00 | 92 | 1013.1 |
| 20260831120534 | 75 | 68 | 2.0 | 4.0 | 0.00 | 0.00 | 0.00 | 92 | 1013.1 |
| 20260831120034 | 75 | 68 | 2.0 | 4.0 | 0.00 | 0.00 | 0.00 | 92 | 1013.1 |
| 20260831115534 | 75 | 69 | 1.0 | 3.0 | 0.00 | 0.00 | 0.00 | 92 | 1013.0 |
| 20260831115032 | 75 | 69 | 2.0 | 3.0 | 0.00 | 0.00 | 0.00 | 92 | 1013.0 |
| 20260831114534 | 75 | 69 | 1.0 | 4.0 | 0.00 | 0.00 | 0.00 | 92 | 1013.0 |
| 20260831114033 | 75 | 69 | 2.0 | 4.0 | 0.00 | 0.00 | 0.00 | 92 | 1012.9 |
| 20260831113532 | 75 | 69 | 2.0 | 5.0 | 0.00 | 0.00 | 0.00 | 92 | 1012.9 |
| 20260831113032 | 75 | 70 | 3.0 | 5.0 | 0.00 | 0.00 | 0.00 | 92 | 1012.9 |
| 20260831112522 | 75 | 66 | 3.0 | 5.0 | 0.00 | 0.00 | 0.00 | 92 | 1013.0 |
| 20260831112238 | 75 | 55 | 3.0 | 5.0 | 0.00 | 0.00 | 0.00 | 92 | 1013.0 |
| 20260831111457 | 75 | 55 | 3.0 | 5.0 | 0.00 | 0.00 | 0.00 | 92 | 1013.0 |
| 20260831110956 | 75 | 54 | 3.0 | 5.0 | 0.00 | 0.00 | 0.00 | 92 | 1013.0 |
| 20260831110449 | 75 | 57 | 3.0 | 4.0 | 0.00 | 0.00 | 0.00 | 92 | 1013.0 |
| 20260831105940 | 75 | 57 | 3.0 | 5.0 | 0.00 | 0.00 | 0.00 | 92 | 1013.0 |
| 20260831105653 | 75 | 55 | 3.0 | 5.0 | 0.00 | 0.00 | 0.00 | 92 | 1013.0 |
| 20260831104920 | 75 | 53 | 3.0 | 5.0 | 0.00 | 0.00 | 0.00 | 92 | 1013.0 |
| 20260831104416 | 75 | 54 | 3.0 | 5.0 | 0.00 | 0.00 | 0.00 | 92 | 1012.9 |
| 20260831103918 | 75 | 54 | 2.0 | 4.0 | 0.00 | 0.00 | 0.00 | 92 | 1012.9 |
| 20260831103636 | 75 | 58 | 2.0 | 4.0 | 0.00 | 0.00 | 0.00 | 92 | 1012.9 |
| 20260831102917 | 75 | 59 | 2.0 | 4.0 | 0.00 | 0.00 | 0.00 | 92 | 1012.9 |
| 20260831102416 | 75 | 59 | 2.0 | 4.0 | 0.00 | 0.00 | 0.00 | 91 | 1012.9 |
| 20260831101915 | 75 | 59 | 2.0 | 4.0 | 0.00 | 0.00 | 0.00 | 91 | 1012.9 |
| 20260831100913 | 75 | 59 | 3.0 | 4.0 | 0.00 | 0.00 | 0.00 | 91 | 1012.9 |
| 20260831100411 | 75 | 59 | 3.0 | 4.0 | 0.00 | 0.00 | 0.00 | 92 | 1012.9 |
| 20260831095909 | 75 | 59 | 3.0 | 4.0 | 0.00 | 0.00 | 0.00 | 92 | 1012.9 |
| 20260831095407 | 75 | 61 | 3.0 | 4.0 | 0.00 | 0.00 | 0.00 | 92 | 1012.9 |
| 20260831094905 | 75 | 53 | 3.0 | 4.0 | 0.00 | 0.00 | 0.00 | 92 | 1012.9 |
| 20260831094400 | 75 | 53 | 3.0 | 4.0 | 0.00 | 0.00 | 0.00 | 92 | 1012.9 |
| 20260831094113 | 75 | 53 | 3.0 | 4.0 | 0.00 | 0.00 | 0.00 | 91 | 1012.9 |
| 20260831093340 | 75 | 52 | 3.0 | 4.0 | 0.00 | 0.00 | 0.00 | 91 | 1012.9 |
| 20260831092834 | 76 | 53 | 3.0 | 4.0 | 0.00 | 0.00 | 0.00 | 91 | 1013.0 |
| 20260831092328 | 76 | 57 | 2.0 | 4.0 | 0.00 | 0.00 | 0.00 | 91 | 1013.0 |
| 20260831091822 | 76 | 59 | 3.0 | 5.0 | 0.00 | 0.00 | 0.00 | 91 | 1013.0 |
| 20260831091307 | 76 | 59 | 3.0 | 5.0 | 0.00 | 0.00 | 0.00 | 91 | 1012.9 |
| 20260831090801 | 76 | 61 | 3.0 | 4.0 | 0.00 | 0.00 | 0.00 | 91 | 1012.9 |
| 20260831090252 | 76 | 62 | 2.0 | 4.0 | 0.00 | 0.00 | 0.00 | 91 | 1012.9 |
| 20260831085749 | 76 | 62 | 1.0 | 3.0 | 0.00 | 0.00 | 0.00 | 92 | 1012.9 |
| 20260831085248 | 76 | 62 | 1.0 | 3.0 | 0.00 | 0.00 | 0.00 | 91 | 1012.9 |
| 20260831084749 | 76 | 62 | 2.0 | 4.0 | 0.00 | 0.00 | 0.00 | 91 | 1012.9 |
| 20260831084246 | 76 | 62 | 2.0 | 4.0 | 0.00 | 0.00 | 0.00 | 91 | 1012.9 |
| 20260831083745 | 76 | 62 | 2.0 | 4.0 | 0.00 | 0.00 | 0.00 | 91 | 1012.9 |
| 20260831083244 | 76 | 62 | 2.0 | 4.0 | 0.00 | 0.00 | 0.00 | 91 | 1012.9 |
| 20260831082746 | 76 | 63 | 2.0 | 4.0 | 0.00 | 0.00 | 0.00 | 91 | 1012.9 |
| 20260831082245 | 76 | 64 | 2.0 | 4.0 | 0.00 | 0.00 | 0.00 | 91 | 1012.9 |
| 20260831081743 | 76 | 65 | 2.0 | 4.0 | 0.00 | 0.00 | 0.00 | 91 | 1012.9 |
| 20260831081241 | 76 | 95 | 1.0 | 3.0 | 0.00 | 0.00 | 0.00 | 91 | 1012.9 |
| 20260831081003 | 76 | 138 | 1.0 | 3.0 | 0.00 | 0.00 | 0.00 | 91 | 1012.9 |
| 20260831080239 | 76 | 139 | 1.0 | 4.0 | 0.00 | 0.00 | 0.00 | 91 | 1012.9 |
| 20260831075727 | 76 | 139 | 1.0 | 4.0 | 0.00 | 0.00 | 0.00 | 91 | 1013.0 |
| 20260831075211 | 76 | 139 | 2.0 | 4.0 | 0.00 | 0.00 | 0.00 | 91 | 1013.0 |
| 20260831074655 | 76 | 139 | 2.0 | 4.0 | 0.00 | 0.00 | 0.00 | 91 | 1013.0 |
| 20260831073653 | 76 | 139 | 2.0 | 3.0 | 0.00 | 0.00 | 0.00 | 90 | 1013.1 |
| 20260831073152 | 76 | 139 | 2.0 | 4.0 | 0.00 | 0.00 | 0.00 | 91 | 1013.1 |
| 20260831072652 | 76 | 139 | 1.0 | 4.0 | 0.00 | 0.00 | 0.00 | 91 | 1013.2 |
| 20260831072154 | 76 | 139 | 2.0 | 4.0 | 0.00 | 0.00 | 0.00 | 91 | 1013.2 |
| 20260831071654 | 76 | 139 | 2.0 | 4.0 | 0.00 | 0.00 | 0.00 | 91 | 1013.2 |
| 20260831071421 | 76 | 140 | 2.0 | 4.0 | 0.00 | 0.00 | 0.00 | 91 | 1013.2 |
| 20260831070641 | 76 | 140 | 2.0 | 4.0 | 0.00 | 0.00 | 0.00 | 91 | 1013.2 |
| 20260831070138 | 76 | 140 | 2.0 | 4.0 | 0.00 | 0.00 | 0.00 | 91 | 1013.2 |
| 20260831065638 | 76 | 139 | 2.0 | 4.0 | 0.00 | 0.00 | 0.00 | 91 | 1013.4 |
| 20260831065137 | 76 | 139 | 2.0 | 4.0 | 0.00 | 0.00 | 0.00 | 91 | 1013.4 |
| 20260831064857 | 76 | 139 | 2.0 | 4.0 | 0.00 | 0.00 | 0.00 | 91 | 1013.4 |
| 20260831064133 | 76 | 139 | 2.0 | 4.0 | 0.00 | 0.00 | 0.00 | 91 | 1013.4 |
| 20260831063631 | 76 | 140 | 3.0 | 4.0 | 0.00 | 0.00 | 0.00 | 89 | 1013.4 |
| 20260831063129 | 77 | 139 | 3.0 | 4.0 | 0.00 | 0.00 | 0.00 | 89 | 1013.4 |
| 20260831062628 | 77 | 124 | 2.0 | 4.0 | 0.00 | 0.00 | 0.00 | 90 | 1013.6 |
| 20260831062128 | 77 | 124 | 2.0 | 3.0 | 0.00 | 0.00 | 0.00 | 90 | 1013.6 |
| 20260831061626 | 77 | 124 | 2.0 | 2.0 | 0.00 | 0.00 | 0.00 | 90 | 1013.6 |
| 20260831061125 | 77 | 124 | 1.0 | 2.0 | 0.00 | 0.00 | 0.00 | 90 | 1013.5 |
| 20260831060623 | 76 | 124 | 0.0 | 2.0 | 0.00 | 0.00 | 0.00 | 90 | 1013.5 |
| 20260831060122 | 76 | 124 | 0.0 | 0.0 | 0.00 | 0.00 | 0.00 | 90 | 1013.5 |
| 20260831055621 | 76 | 124 | 0.0 | 0.0 | 0.00 | 0.00 | 0.00 | 90 | 1013.5 |
| 20260831055117 | 77 | 124 | 0.0 | 2.0 | 0.00 | 0.00 | 0.00 | 90 | 1013.5 |
| 20260831054617 | 77 | 124 | 0.0 | 2.0 | 0.00 | 0.00 | 0.00 | 89 | 1013.5 |
| 20260831054117 | 77 | 124 | 0.0 | 2.0 | 0.00 | 0.00 | 0.00 | 89 | 1013.4 |
| 20260831053617 | 77 | 124 | 1.0 | 3.0 | 0.00 | 0.00 | 0.00 | 89 | 1013.4 |
| 20260831053114 | 77 | 124 | 2.0 | 3.0 | 0.00 | 0.00 | 0.00 | 89 | 1013.4 |
| 20260831052614 | 77 | 124 | 2.0 | 3.0 | 0.00 | 0.00 | 0.00 | 89 | 1013.2 |
| 20260831052111 | 78 | 124 | 2.0 | 3.0 | 0.00 | 0.00 | 0.00 | 89 | 1013.2 |
| 20260831051608 | 78 | 124 | 2.0 | 4.0 | 0.00 | 0.00 | 0.00 | 89 | 1013.2 |
| 20260831051105 | 78 | 124 | 2.0 | 4.0 | 0.00 | 0.00 | 0.00 | 89 | 1012.9 |
| 20260831050603 | 78 | 123 | 2.0 | 4.0 | 0.00 | 0.00 | 0.00 | 89 | 1012.9 |
| 20260831050104 | 78 | 122 | 2.0 | 3.0 | 0.00 | 0.00 | 0.00 | 88 | 1012.9 |
| 20260831045558 | 78 | 122 | 3.0 | 4.0 | 0.00 | 0.00 | 0.00 | 89 | 1012.9 |
| 20260831045048 | 78 | 122 | 4.0 | 5.0 | 0.00 | 0.00 | 0.00 | 88 | 1012.9 |
| 20260831044538 | 78 | 124 | 4.0 | 6.0 | 0.00 | 0.00 | 0.00 | 89 | 1012.9 |
| 20260831044034 | 78 | 132 | 4.0 | 6.0 | 0.00 | 0.00 | 0.00 | 89 | 1012.5 |
| 20260831043534 | 78 | 139 | 4.0 | 6.0 | 0.00 | 0.00 | 0.00 | 90 | 1012.5 |
| 20260831043032 | 78 | 134 | 4.0 | 6.0 | 0.00 | 0.00 | 0.00 | 89 | 1012.5 |
| 20260831042752 | 78 | 134 | 3.0 | 6.0 | 0.00 | 0.00 | 0.00 | 88 | 1012.9 |
| 20260831042031 | 78 | 130 | 4.0 | 5.0 | 0.00 | 0.00 | 0.00 | 88 | 1012.9 |
| 20260831041528 | 78 | 119 | 4.0 | 5.0 | 0.00 | 0.00 | 0.00 | 89 | 1012.9 |
| 20260831041030 | 78 | 127 | 3.0 | 4.0 | 0.00 | 0.00 | 0.00 | 88 | 1012.8 |
| 20260831040529 | 79 | 128 | 3.0 | 4.0 | 0.00 | 0.00 | 0.00 | 88 | 1012.8 |
| 20260831040301 | 79 | 128 | 2.0 | 3.0 | 0.00 | 0.00 | 0.00 | 88 | 1012.8 |
| 20260831035529 | 79 | 128 | 2.0 | 3.0 | 0.00 | 0.00 | 0.00 | 88 | 1012.9 |
| 20260831035023 | 79 | 128 | 3.0 | 4.0 | 0.00 | 0.00 | 0.00 | 88 | 1012.9 |
| 20260831034522 | 79 | 128 | 3.0 | 4.0 | 0.00 | 0.00 | 0.00 | 88 | 1012.9 |
| 20260831034021 | 79 | 128 | 3.0 | 4.0 | 0.00 | 0.00 | 0.00 | 88 | 1012.9 |
| 20260831033514 | 79 | 126 | 2.0 | 4.0 | 0.00 | 0.00 | 0.00 | 88 | 1012.9 |
| 20260831033006 | 79 | 130 | 2.0 | 4.0 | 0.00 | 0.00 | 0.00 | 87 | 1012.8 |
| 20260831032457 | 79 | 135 | 2.0 | 4.0 | 0.00 | 0.00 | 0.00 | 88 | 1012.8 |
| 20260831032213 | 80 | 136 | 2.0 | 4.0 | 0.00 | 0.00 | 0.00 | 87 | 1012.8 |
| 20260831031444 | 80 | 136 | 2.0 | 4.0 | 0.00 | 0.00 | 0.00 | 87 | 1012.6 |
| 20260831030949 | 80 | 136 | 2.0 | 6.0 | 0.00 | 0.00 | 0.00 | 87 | 1012.6 |
| 20260831030705 | 80 | 136 | 3.0 | 6.0 | 0.00 | 0.00 | 0.00 | 86 | 1012.6 |
| 20260831025944 | 80 | 136 | 3.0 | 6.0 | 0.00 | 0.00 | 0.00 | 87 | 1012.4 |
| 20260831025444 | 81 | 143 | 3.0 | 6.0 | 0.00 | 0.00 | 0.00 | 86 | 1012.4 |
| 20260831024941 | 81 | 134 | 3.0 | 5.0 | 0.00 | 0.00 | 0.00 | 86 | 1012.4 |
| 20260831024440 | 81 | 130 | 3.0 | 6.0 | 0.00 | 0.00 | 0.00 | 86 | 1012.3 |
| 20260831023941 | 81 | 127 | 4.0 | 7.0 | 0.00 | 0.00 | 0.00 | 85 | 1012.3 |
| 20260831023438 | 81 | 128 | 4.0 | 7.0 | 0.00 | 0.00 | 0.00 | 85 | 1012.3 |
| 20260831022939 | 82 | 136 | 4.0 | 7.0 | 0.00 | 0.00 | 0.00 | 85 | 1012.4 |
| 20260831022707 | 82 | 123 | 4.0 | 6.0 | 0.00 | 0.00 | 0.00 | 85 | 1012.4 |
| 20260831021930 | 82 | 122 | 4.0 | 6.0 | 0.00 | 0.00 | 0.00 | 85 | 1012.4 |
| 20260831021426 | 82 | 120 | 4.0 | 7.0 | 0.00 | 0.00 | 0.00 | 85 | 1012.2 |
| 20260831020926 | 82 | 130 | 4.0 | 7.0 | 0.00 | 0.00 | 0.00 | 85 | 1012.2 |
| 20260831020428 | 82 | 120 | 4.0 | 7.0 | 0.00 | 0.00 | 0.00 | 85 | 1012.2 |
| 20260831020151 | 83 | 131 | 4.0 | 9.0 | 0.00 | 0.00 | 0.00 | 84 | 1011.9 |
| 20260831015424 | 83 | 130 | 5.0 | 9.0 | 0.00 | 0.00 | 0.00 | 84 | 1011.9 |
| 20260831014923 | 83 | 130 | 5.0 | 9.0 | 0.00 | 0.00 | 0.00 | 84 | 1011.9 |
| 20260831014422 | 83 | 132 | 5.0 | 9.0 | 0.00 | 0.00 | 0.00 | 84 | 1011.9 |
| 20260831014144 | 83 | 147 | 5.0 | 10.0 | 0.00 | 0.00 | 0.00 | 84 | 1011.9 |
| 20260831013421 | 84 | 90 | 5.0 | 10.0 | 0.00 | 0.00 | 0.00 | 83 | 1011.9 |
| 20260831012922 | 84 | 120 | 5.0 | 10.0 | 0.00 | 0.00 | 0.00 | 83 | 1011.8 |
| 20260831012415 | 84 | 137 | 5.0 | 10.0 | 0.00 | 0.00 | 0.00 | 83 | 1011.8 |
| 20260831011917 | 84 | 140 | 6.0 | 13.0 | 0.00 | 0.00 | 0.00 | 83 | 1011.8 |
| 20260831011418 | 84 | 117 | 7.0 | 13.0 | 0.00 | 0.00 | 0.00 | 82 | 1011.9 |
| 20260831010915 | 85 | 90 | 7.0 | 13.0 | 0.00 | 0.00 | 0.00 | 82 | 1011.9 |
| 20260831010632 | 85 | 128 | 7.0 | 13.0 | 0.00 | 0.00 | 0.00 | 81 | 1011.9 |
| 20260831005917 | 85 | 143 | 7.0 | 15.0 | 0.00 | 0.00 | 0.00 | 81 | 1011.9 |
| 20260831005414 | 86 | 158 | 7.0 | 15.0 | 0.00 | 0.00 | 0.00 | 80 | 1011.9 |
| 20260831004915 | 86 | 163 | 9.0 | 16.0 | 0.00 | 0.00 | 0.00 | 79 | 1011.9 |
| 20260831004408 | 86 | 169 | 9.0 | 16.0 | 0.00 | 0.00 | 0.00 | 78 | 1011.8 |
| 20260831003847 | 87 | 90 | 8.0 | 18.0 | 0.00 | 0.00 | 0.00 | 77 | 1011.8 |
| 20260831002825 | 87 | 128 | 8.0 | 17.0 | 0.00 | 0.00 | 0.00 | 75 | 1011.6 |
| 20260831001804 | 88 | 149 | 9.0 | 16.0 | 0.00 | 0.00 | 0.00 | 74 | 1011.6 |
| 20260831001534 | 88 | 132 | 9.0 | 18.0 | 0.00 | 0.00 | 0.00 | 74 | 1011.6 |
| 20260831000744 | 88 | 165 | 10.0 | 18.0 | 0.00 | 0.00 | 0.00 | 74 | 1011.6 |
| 20260831000241 | 89 | 152 | 9.0 | 16.0 | 0.00 | 0.00 | 0.00 | 72 | 1011.6 |
| 20260830235729 | 89 | 139 | 8.0 | 15.0 | 0.00 | 0.00 | 0.00 | 71 | 1011.4 |
| 20260830235227 | 89 | 145 | 9.0 | 17.0 | 0.00 | 0.00 | 0.00 | 71 | 1011.4 |
| 20260830234729 | 90 | 123 | 10.0 | 17.0 | 0.00 | 0.00 | 0.00 | 70 | 1011.4 |
| 20260830234451 | 90 | 90 | 10.0 | 17.0 | 0.00 | 0.00 | 0.00 | 69 | 1011.4 |
| 20260830233726 | 90 | 148 | 9.0 | 17.0 | 0.00 | 0.00 | 0.00 | 69 | 1011.4 |
| 20260830233225 | 91 | 90 | 10.0 | 18.0 | 0.00 | 0.00 | 0.00 | 68 | 1011.4 |
| 20260830232723 | 91 | 174 | 10.0 | 18.0 | 0.00 | 0.00 | 0.00 | 67 | 1011.4 |
| 20260830232224 | 91 | 90 | 10.0 | 19.0 | 0.00 | 0.00 | 0.00 | 67 | 1011.4 |
| 20260830231725 | 91 | 124 | 12.0 | 19.0 | 0.00 | 0.00 | 0.00 | 66 | 1011.4 |
| 20260830231223 | 92 | 90 | 12.0 | 21.0 | 0.00 | 0.00 | 0.00 | 68 | 1011.5 |
| 20260830230723 | 92 | 156 | 11.0 | 21.0 | 0.00 | 0.00 | 0.00 | 68 | 1011.5 |
| 20260830230225 | 92 | 137 | 10.0 | 17.0 | 0.00 | 0.00 | 0.00 | 67 | 1011.5 |
| 20260830225715 | 92 | 128 | 10.0 | 18.0 | 0.00 | 0.00 | 0.00 | 68 | 1011.6 |
| 20260830225216 | 93 | 164 | 10.0 | 19.0 | 0.00 | 0.00 | 0.00 | 67 | 1011.6 |
| 20260830224215 | 93 | 90 | 12.0 | 20.0 | 0.00 | 0.00 | 0.00 | 65 | 1011.4 |
| 20260830223713 | 93 | 133 | 12.0 | 20.0 | 0.00 | 0.00 | 0.00 | 65 | 1011.4 |
| 20260830223213 | 93 | 90 | 12.0 | 20.0 | 0.00 | 0.00 | 0.00 | 63 | 1011.4 |
| 20260830222933 | 93 | 90 | 12.0 | 23.0 | 0.00 | 0.00 | 0.00 | 63 | 1011.4 |
| 20260830222432 | 93 | 179 | 13.0 | 23.0 | 0.00 | 0.00 | 0.00 | 63 | 1011.4 |
| 20260830221938 | 93 | 155 | 13.0 | 22.0 | 0.00 | 0.00 | 0.00 | 63 | 1011.4 |
| 20260830221214 | 94 | 172 | 13.0 | 22.0 | 0.00 | 0.00 | 0.00 | 62 | 1011.4 |
| 20260830220210 | 94 | 151 | 12.0 | 22.0 | 0.00 | 0.00 | 0.00 | 62 | 1011.4 |
| 20260830215704 | 94 | 147 | 14.0 | 21.0 | 0.00 | 0.00 | 0.00 | 61 | 1011.4 |
| 20260830215159 | 95 | 90 | 13.0 | 22.0 | 0.00 | 0.00 | 0.00 | 62 | 1011.4 |
| 20260830214646 | 96 | 170 | 11.0 | 19.0 | 0.00 | 0.00 | 0.00 | 60 | 1011.4 |
| 20260830214139 | 96 | 90 | 12.0 | 22.0 | 0.00 | 0.00 | 0.00 | 59 | 1011.6 |
| 20260830213637 | 96 | 165 | 11.0 | 22.0 | 0.00 | 0.00 | 0.00 | 57 | 1011.6 |
| 20260830213137 | 96 | 166 | 9.0 | 16.0 | 0.00 | 0.00 | 0.00 | 56 | 1011.6 |
| 20260830212633 | 96 | 157 | 11.0 | 18.0 | 0.00 | 0.00 | 0.00 | 55 | 1011.9 |
| 20260830212133 | 96 | 155 | 11.0 | 18.0 | 0.00 | 0.00 | 0.00 | 54 | 1011.9 |
| 20260830211639 | 96 | 168 | 10.0 | 19.0 | 0.00 | 0.00 | 0.00 | 55 | 1011.9 |
| 20260830211134 | 96 | 118 | 11.0 | 19.0 | 0.00 | 0.00 | 0.00 | 55 | 1011.9 |
| 20260830210634 | 96 | 90 | 11.0 | 21.0 | 0.00 | 0.00 | 0.00 | 53 | 1011.9 |
| 20260830210134 | 97 | 172 | 11.0 | 22.0 | 0.00 | 0.00 | 0.00 | 53 | 1011.9 |
| 20260830205633 | 97 | 80 | 11.0 | 22.0 | 0.00 | 0.00 | 0.00 | 54 | 1012.1 |
| 20260830205132 | 97 | 159 | 10.0 | 17.0 | 0.00 | 0.00 | 0.00 | 53 | 1012.1 |
| 20260830204620 | 97 | 215 | 9.0 | 17.0 | 0.00 | 0.00 | 0.00 | 52 | 1012.1 |
| 20260830204104 | 98 | 112 | 9.0 | 19.0 | 0.00 | 0.00 | 0.00 | 54 | 1012.4 |
| 20260830203548 | 97 | 134 | 10.0 | 19.0 | 0.00 | 0.00 | 0.00 | 53 | 1012.4 |
| 20260830203045 | 97 | 134 | 10.0 | 16.0 | 0.00 | 0.00 | 0.00 | 52 | 1012.4 |
| 20260830202551 | 97 | 90 | 9.0 | 16.0 | 0.00 | 0.00 | 0.00 | 53 | 1012.4 |
| 20260830202045 | 98 | 186 | 9.0 | 16.0 | 0.00 | 0.00 | 0.00 | 53 | 1012.4 |
| 20260830201546 | 97 | 127 | 9.0 | 19.0 | 0.00 | 0.00 | 0.00 | 52 | 1012.4 |
| 20260830201317 | 97 | 153 | 10.0 | 22.0 | 0.00 | 0.00 | 0.00 | 53 | 1012.5 |
| 20260830200544 | 98 | 207 | 10.0 | 22.0 | 0.00 | 0.00 | 0.00 | 53 | 1012.5 |
| 20260830200045 | 98 | 168 | 7.0 | 16.0 | 0.00 | 0.00 | 0.00 | 51 | 1012.5 |
| 20260830195043 | 98 | 152 | 7.0 | 16.0 | 0.00 | 0.00 | 0.00 | 52 | 1012.6 |
| 20260830194536 | 98 | 164 | 7.0 | 16.0 | 0.00 | 0.00 | 0.00 | 52 | 1012.6 |
| 20260830194026 | 98 | 144 | 7.0 | 16.0 | 0.00 | 0.00 | 0.00 | 52 | 1012.8 |
| 20260830193516 | 98 | 156 | 8.0 | 16.0 | 0.00 | 0.00 | 0.00 | 50 | 1012.8 |
| 20260830193002 | 98 | 124 | 8.0 | 13.0 | 0.00 | 0.00 | 0.00 | 53 | 1012.9 |
| 20260830192454 | 98 | 132 | 8.0 | 14.0 | 0.00 | 0.00 | 0.00 | 53 | 1012.9 |
| 20260830192218 | 98 | 90 | 7.0 | 18.0 | 0.00 | 0.00 | 0.00 | 51 | 1012.9 |
| 20260830191456 | 98 | 90 | 7.0 | 18.0 | 0.00 | 0.00 | 0.00 | 50 | 1013.3 |
| 20260830190955 | 98 | 149 | 8.0 | 18.0 | 0.00 | 0.00 | 0.00 | 50 | 1013.3 |
| 20260830190455 | 98 | 153 | 7.0 | 18.0 | 0.00 | 0.00 | 0.00 | 50 | 1013.3 |
| 20260830185955 | 98 | 90 | 6.0 | 12.0 | 0.00 | 0.00 | 0.00 | 51 | 1013.4 |
| 20260830185501 | 97 | 107 | 7.0 | 13.0 | 0.00 | 0.00 | 0.00 | 51 | 1013.4 |
| 20260830185213 | 97 | 160 | 6.0 | 13.0 | 0.00 | 0.00 | 0.00 | 51 | 1013.4 |
| 20260830184454 | 96 | 168 | 5.0 | 11.0 | 0.00 | 0.00 | 0.00 | 53 | 1013.4 |
| 20260830184216 | 95 | 118 | 5.0 | 11.0 | 0.00 | 0.00 | 0.00 | 56 | 1013.4 |
| 20260830183454 | 95 | 153 | 4.0 | 10.0 | 0.00 | 0.00 | 0.00 | 61 | 1013.4 |
| 20260830182451 | 95 | 274 | 6.0 | 9.0 | 0.00 | 0.00 | 0.00 | 63 | 1013.7 |
| 20260830182207 | 95 | 243 | 5.0 | 9.0 | 0.00 | 0.00 | 0.00 | 63 | 1013.7 |
| 20260830181430 | 95 | 269 | 3.0 | 9.0 | 0.00 | 0.00 | 0.00 | 59 | 1014.0 |
| 20260830180919 | 94 | 43 | 3.0 | 8.0 | 0.00 | 0.00 | 0.00 | 64 | 1014.0 |
| 20260830180417 | 94 | 262 | 4.0 | 8.0 | 0.00 | 0.00 | 0.00 | 63 | 1014.0 |
| 20260830175908 | 94 | 289 | 3.0 | 7.0 | 0.00 | 0.00 | 0.00 | 65 | 1014.5 |
| 20260830175638 | 94 | 244 | 2.0 | 5.0 | 0.00 | 0.00 | 0.00 | 65 | 1014.5 |
| 20260830174409 | 93 | 32 | 3.0 | 5.0 | 0.00 | 0.00 | 0.00 | 64 | 1014.7 |
| 20260830173904 | 93 | 57 | 4.0 | 5.0 | 0.00 | 0.00 | 0.00 | 65 | 1014.7 |
| 20260830173409 | 93 | 343 | 3.0 | 5.0 | 0.00 | 0.00 | 0.00 | 67 | 1014.7 |
| 20260830172904 | 92 | 274 | 3.0 | 6.0 | 0.00 | 0.00 | 0.00 | 67 | 1014.9 |
| 20260830172413 | 91 | 257 | 3.0 | 7.0 | 0.00 | 0.00 | 0.00 | 70 | 1014.9 |
| 20260830171904 | 91 | 259 | 3.0 | 7.0 | 0.00 | 0.00 | 0.00 | 69 | 1014.9 |
| 20260830171404 | 92 | 254 | 4.0 | 7.0 | 0.00 | 0.00 | 0.00 | 67 | 1015.0 |
| 20260830170902 | 92 | 255 | 4.0 | 7.0 | 0.00 | 0.00 | 0.00 | 68 | 1015.0 |
| 20260830170404 | 92 | 253 | 4.0 | 4.0 | 0.00 | 0.00 | 0.00 | 69 | 1015.0 |
| 20260830165120 | 91 | 236 | 3.0 | 6.0 | 0.00 | 0.00 | 0.00 | 70 | 1015.1 |
| 20260830164621 | 91 | 223 | 4.0 | 6.0 | 0.00 | 0.00 | 0.00 | 71 | 1015.1 |
| 20260830164344 | 91 | 229 | 4.0 | 6.0 | 0.00 | 0.00 | 0.00 | 71 | 1015.3 |
| 20260830163619 | 90 | 220 | 4.0 | 7.0 | 0.00 | 0.00 | 0.00 | 72 | 1015.3 |
| 20260830163110 | 90 | 213 | 4.0 | 7.0 | 0.00 | 0.00 | 0.00 | 74 | 1015.3 |
| 20260830162608 | 90 | 216 | 5.0 | 8.0 | 0.00 | 0.00 | 0.00 | 74 | 1015.3 |
| 20260830162109 | 89 | 226 | 5.0 | 8.0 | 0.00 | 0.00 | 0.00 | 76 | 1015.3 |
| 20260830161621 | 89 | 232 | 4.0 | 7.0 | 0.00 | 0.00 | 0.00 | 76 | 1015.3 |
| 20260830161110 | 89 | 253 | 5.0 | 8.0 | 0.00 | 0.00 | 0.00 | 76 | 1015.2 |
| 20260830160609 | 88 | 234 | 5.0 | 8.0 | 0.00 | 0.00 | 0.00 | 77 | 1015.2 |
| 20260830160107 | 89 | 236 | 4.0 | 8.0 | 0.00 | 0.00 | 0.00 | 77 | 1015.2 |
| 20260830155609 | 89 | 230 | 4.0 | 8.0 | 0.00 | 0.00 | 0.00 | 76 | 1015.2 |
| 20260830155056 | 89 | 252 | 3.0 | 8.0 | 0.00 | 0.00 | 0.00 | 75 | 1015.2 |
| 20260830154555 | 90 | 259 | 4.0 | 8.0 | 0.00 | 0.00 | 0.00 | 76 | 1015.2 |
| 20260830154308 | 89 | 253 | 4.0 | 8.0 | 0.00 | 0.00 | 0.00 | 77 | 1015.3 |
| 20260830153539 | 88 | 295 | 3.0 | 6.0 | 0.00 | 0.00 | 0.00 | 77 | 1015.3 |
| 20260830153029 | 88 | 275 | 2.0 | 6.0 | 0.00 | 0.00 | 0.00 | 79 | 1015.3 |
| 20260830152519 | 88 | 252 | 3.0 | 5.0 | 0.00 | 0.00 | 0.00 | 79 | 1015.3 |
| 20260830152234 | 88 | 255 | 2.0 | 5.0 | 0.00 | 0.00 | 0.00 | 80 | 1015.3 |
| 20260830151505 | 87 | 223 | 3.0 | 6.0 | 0.00 | 0.00 | 0.00 | 80 | 1015.3 |
| 20260830151224 | 87 | 220 | 3.0 | 6.0 | 0.00 | 0.00 | 0.00 | 80 | 1015.2 |
| 20260830150504 | 87 | 164 | 1.0 | 4.0 | 0.00 | 0.00 | 0.00 | 80 | 1015.2 |
| 20260830150224 | 87 | 145 | 1.0 | 3.0 | 0.00 | 0.00 | 0.00 | 80 | 1015.2 |
| 20260830145728 | 87 | 132 | 0.0 | 3.0 | 0.00 | 0.00 | 0.00 | 81 | 1015.1 |
| 20260830145004 | 87 | 132 | 0.0 | 3.0 | 0.00 | 0.00 | 0.00 | 81 | 1015.1 |
| 20260830144502 | 87 | 129 | 1.0 | 4.0 | 0.00 | 0.00 | 0.00 | 83 | 1015.1 |
| 20260830144000 | 86 | 129 | 1.0 | 4.0 | 0.00 | 0.00 | 0.00 | 83 | 1015.2 |
| 20260830143506 | 86 | 112 | 1.0 | 4.0 | 0.00 | 0.00 | 0.00 | 84 | 1015.2 |
| 20260830143219 | 85 | 112 | 1.0 | 4.0 | 0.00 | 0.00 | 0.00 | 85 | 1015.2 |
| 20260830142501 | 84 | 61 | 1.0 | 4.0 | 0.00 | 0.00 | 0.00 | 87 | 1015.1 |
| 20260830142001 | 84 | 64 | 1.0 | 3.0 | 0.00 | 0.00 | 0.00 | 87 | 1015.1 |
| 20260830141455 | 83 | 64 | 1.0 | 4.0 | 0.00 | 0.00 | 0.00 | 88 | 1015.0 |
| 20260830140940 | 82 | 64 | 1.0 | 4.0 | 0.00 | 0.00 | 0.00 | 89 | 1015.0 |
| 20260830140430 | 81 | 61 | 0.0 | 0.0 | 0.00 | 0.00 | 0.00 | 90 | 1015.0 |
| 20260830135925 | 80 | 57 | 0.0 | 0.0 | 0.00 | 0.00 | 0.00 | 90 | 1014.9 |
| 20260830135415 | 79 | 56 | 0.0 | 0.0 | 0.00 | 0.00 | 0.00 | 91 | 1014.9 |
| 20260830134908 | 78 | 56 | 0.0 | 0.0 | 0.00 | 0.00 | 0.00 | 92 | 1014.9 |
| 20260830134402 | 78 | 56 | 0.0 | 0.0 | 0.00 | 0.00 | 0.00 | 92 | 1014.9 |
| 20260830133845 | 77 | 56 | 0.0 | 0.0 | 0.00 | 0.00 | 0.00 | 92 | 1014.9 |
| 20260830132838 | 77 | 56 | 1.0 | 5.0 | 0.00 | 0.00 | 0.00 | 93 | 1014.7 |
| 20260830132328 | 76 | 57 | 2.0 | 5.0 | 0.00 | 0.00 | 0.00 | 93 | 1014.7 |